,,,PA_Meas_PMT16A,,PR_Meas_QMR101_102,,RH_Meas_QMH101,,SR_Meas_QMS101,,TA_Meas_QMH101,,GenWind,,GenWind,
date,time,status,PA,status,PR,status,RH,status,SR,status,TA,status,DirAvg,status,SpdAvg,
2011-01-25, 00:00:04,VALID,1003.9,VALID,0,INVALID,163.739,VALID,0,VALID,23.5673,VALID,357,VALID,0.766016,
2011-01-25, 00:01:04,VALID,1003.85,VALID,0,INVALID,163.723,VALID,0,VALID,23.5673,VALID,357,VALID,0.646484,
2011-01-25, 00:02:04,VALID,1003.87,VALID,0,INVALID,163.731,VALID,0,VALID,23.5266,VALID,357,VALID,0.7625,
2011-01-25, 00:03:04,VALID,1003.84,VALID,0,INVALID,163.746,VALID,0,VALID,23.5284,VALID,357,VALID,0.678906,
2011-01-25, 00:04:04,VALID,1003.84,VALID,0,INVALID,163.731,VALID,0,VALID,23.5284,VALID,357,VALID,0.684375,
2011-01-25, 00:05:04,VALID,1003.85,VALID,0,INVALID,163.716,VALID,0,VALID,23.5089,VALID,357,VALID,0.609766,
2011-01-25, 00:06:04,VALID,1003.8,VALID,0,INVALID,163.739,VALID,0,VALID,23.5284,VALID,357,VALID,0.660937,
2011-01-25, 00:07:04,VALID,1003.78,VALID,0,INVALID,163.723,VALID,0,VALID,23.5089,VALID,357,VALID,0.58125,
2011-01-25, 00:08:04,VALID,1003.77,VALID,0,INVALID,163.746,VALID,0,VALID,23.4894,VALID,357,VALID,0.55,
2011-01-25, 00:09:04,VALID,1003.8,VALID,0,INVALID,163.731,VALID,0,VALID,23.4682,VALID,357,VALID,0.619922,
2011-01-25, 00:10:04,VALID,1003.79,VALID,0,INVALID,163.739,VALID,0,VALID,23.4894,VALID,357,VALID,0.619141,
2011-01-25, 00:11:04,VALID,1003.81,VALID,0,INVALID,163.723,VALID,0,VALID,23.4487,VALID,355,VALID,0.721484,
2011-01-25, 00:12:04,VALID,1003.81,VALID,0,INVALID,163.723,VALID,0,VALID,23.4487,VALID,355,VALID,0.627734,
2011-01-25, 00:13:04,VALID,1003.82,VALID,0,INVALID,163.739,VALID,0,VALID,23.4293,VALID,356,VALID,0.757422,
2011-01-25, 00:14:04,VALID,1003.81,VALID,0,INVALID,163.731,VALID,0,VALID,23.4098,VALID,355,VALID,0.606641,
2011-01-25, 00:15:04,VALID,1003.8,VALID,0,INVALID,163.731,VALID,0,VALID,23.4098,VALID,356,VALID,0.588281,
2011-01-25, 00:16:04,VALID,1003.83,VALID,0,INVALID,163.739,VALID,0,VALID,23.4311,VALID,356,VALID,0.624219,
2011-01-25, 00:17:04,VALID,1003.78,VALID,0,INVALID,163.739,VALID,0,VALID,23.4505,VALID,356,VALID,0.583594,
2011-01-25, 00:18:04,VALID,1003.74,VALID,0,INVALID,163.769,VALID,0,VALID,23.4098,VALID,356,VALID,0.493359,
2011-01-25, 00:19:04,VALID,1003.71,VALID,0,INVALID,163.723,VALID,0,VALID,23.4505,VALID,355,VALID,0.617578,
2011-01-25, 00:20:04,VALID,1003.66,VALID,0,INVALID,163.739,VALID,0,VALID,23.4311,VALID,356,VALID,0.409766,
2011-01-25, 00:21:04,VALID,1003.65,VALID,0,INVALID,163.739,VALID,0,VALID,23.4293,VALID,356,VALID,0.542188,
2011-01-25, 00:22:04,VALID,1003.61,VALID,0,INVALID,163.754,VALID,0,VALID,23.4311,VALID,356,VALID,0.523047,
2011-01-25, 00:23:04,VALID,1003.62,VALID,0,INVALID,163.723,VALID,0,VALID,23.4098,VALID,355,VALID,0.288281,
2011-01-25, 00:24:04,VALID,1003.6,VALID,0,INVALID,163.739,VALID,0,VALID,23.4311,VALID,356,VALID,0.510938,
2011-01-25, 00:25:04,VALID,1003.59,VALID,0,INVALID,163.716,VALID,0,VALID,23.4116,VALID,355,VALID,0.523828,
2011-01-25, 00:26:04,VALID,1003.58,VALID,0,INVALID,163.746,VALID,0,VALID,23.3904,VALID,356,VALID,0.6625,
2011-01-25, 00:27:04,VALID,1003.6,VALID,0,INVALID,163.762,VALID,0,VALID,23.4116,VALID,355,VALID,0.614453,
2011-01-25, 00:28:04,VALID,1003.58,VALID,0,INVALID,163.739,VALID,0,VALID,23.3904,VALID,356,VALID,0.597656,
2011-01-25, 00:29:04,VALID,1003.59,VALID,0,INVALID,163.746,VALID,0,VALID,23.3709,VALID,356,VALID,0.609766,
2011-01-25, 00:30:04,VALID,1003.59,VALID,0,INVALID,163.746,VALID,0,VALID,23.3921,VALID,355,VALID,0.744531,
2011-01-25, 00:31:04,VALID,1003.59,VALID,0,INVALID,163.769,VALID,0,VALID,23.3709,VALID,355,VALID,0.640234,
2011-01-25, 00:32:04,VALID,1003.61,VALID,0,INVALID,163.762,VALID,0,VALID,23.3709,VALID,356,VALID,0.622266,
2011-01-25, 00:33:04,VALID,1003.58,VALID,0,INVALID,163.739,VALID,0,VALID,23.3727,VALID,356,VALID,0.712109,
2011-01-25, 00:34:04,VALID,1003.57,VALID,0,INVALID,163.746,VALID,0,VALID,23.3709,VALID,356,VALID,0.610937,
2011-01-25, 00:35:04,VALID,1003.57,VALID,0,INVALID,163.754,VALID,0,VALID,23.3921,VALID,355,VALID,0.640625,
2011-01-25, 00:36:04,VALID,1003.55,VALID,0,INVALID,163.754,VALID,0,VALID,23.3709,VALID,356,VALID,0.639063,
2011-01-25, 00:37:04,VALID,1003.54,VALID,0,INVALID,163.739,VALID,0,VALID,23.3904,VALID,355,VALID,0.706641,
2011-01-25, 00:38:04,VALID,1003.53,VALID,0,INVALID,163.739,VALID,0,VALID,23.3921,VALID,355,VALID,0.819922,
2011-01-25, 00:39:04,VALID,1003.54,VALID,0,INVALID,163.754,VALID,0,VALID,23.4116,VALID,355,VALID,0.584375,
2011-01-25, 00:40:04,VALID,1003.52,VALID,0,INVALID,163.731,VALID,0,VALID,23.3886,VALID,356,VALID,0.590234,
2011-01-25, 00:41:04,VALID,1003.51,VALID,0,INVALID,163.746,VALID,0.100563,VALID,23.3691,VALID,355,VALID,0.611328,
2011-01-25, 00:42:04,VALID,1003.51,VALID,0,INVALID,163.723,VALID,0,VALID,23.3709,VALID,356,VALID,0.582031,
2011-01-25, 00:43:04,VALID,1003.49,VALID,0,INVALID,163.762,VALID,0,VALID,23.3497,VALID,355,VALID,0.633203,
2011-01-25, 00:44:04,VALID,1003.49,VALID,0,INVALID,163.762,VALID,0,VALID,23.3709,VALID,355,VALID,0.535547,
2011-01-25, 00:45:04,VALID,1003.48,VALID,0,INVALID,163.739,VALID,0,VALID,23.3514,VALID,356,VALID,0.58125,
2011-01-25, 00:46:04,VALID,1003.44,VALID,0,INVALID,163.746,VALID,0.100563,VALID,23.3497,VALID,355,VALID,0.498047,
2011-01-25, 00:47:04,VALID,1003.44,VALID,0,INVALID,163.754,VALID,0.100563,VALID,23.3302,VALID,355,VALID,0.422656,
2011-01-25, 00:48:04,VALID,1003.42,VALID,0,INVALID,163.746,VALID,0,VALID,23.3497,VALID,356,VALID,0.562109,
2011-01-25, 00:49:04,VALID,1003.4,VALID,0,INVALID,163.723,VALID,0.100563,VALID,23.3904,VALID,356,VALID,0.517578,
2011-01-25, 00:50:04,VALID,1003.43,VALID,0,INVALID,163.762,VALID,0,VALID,23.4098,VALID,356,VALID,0.509766,
2011-01-25, 00:51:04,VALID,1003.42,VALID,0,INVALID,163.716,VALID,0,VALID,23.4098,VALID,356,VALID,0.418359,
2011-01-25, 00:52:04,VALID,1003.41,VALID,0,INVALID,163.746,VALID,0,VALID,23.4098,VALID,355,VALID,0.333984,
2011-01-25, 00:53:04,VALID,1003.42,VALID,0,INVALID,163.731,VALID,0,VALID,23.4293,VALID,355,VALID,0.345703,
2011-01-25, 00:54:04,VALID,1003.41,VALID,0,INVALID,163.708,VALID,0,VALID,23.4293,VALID,356,VALID,0.567969,
2011-01-25, 00:55:04,VALID,1003.41,VALID,0,INVALID,163.746,VALID,0,VALID,23.4311,VALID,355,VALID,0.412109,
2011-01-25, 00:56:04,VALID,1003.4,VALID,0,INVALID,163.739,VALID,0,VALID,23.408,VALID,349,VALID,0.408203,
2011-01-25, 00:57:04,VALID,1003.43,VALID,0,INVALID,163.746,VALID,0,VALID,23.4293,VALID,349,VALID,0.516406,
2011-01-25, 00:58:04,VALID,1003.45,VALID,0,INVALID,163.731,VALID,0,VALID,23.4487,VALID,349,VALID,0.427734,
2011-01-25, 00:59:04,VALID,1003.41,VALID,0,INVALID,163.739,VALID,0,VALID,23.4894,VALID,349,VALID,0.422266,
2011-01-25, 01:00:04,VALID,1003.41,VALID,0,INVALID,163.746,VALID,0,VALID,23.5284,VALID,349,VALID,0.490234,
2011-01-25, 01:01:04,VALID,1003.44,VALID,0,INVALID,163.746,VALID,0,VALID,23.5673,VALID,349,VALID,0.433203,
2011-01-25, 01:02:04,VALID,1003.44,VALID,0,INVALID,163.754,VALID,0,VALID,23.585,VALID,349,VALID,0.458203,
2011-01-25, 01:03:04,VALID,1003.43,VALID,0,INVALID,163.716,VALID,0,VALID,23.6044,VALID,349,VALID,0.496875,
2011-01-25, 01:04:04,VALID,1003.41,VALID,0,INVALID,163.708,VALID,0,VALID,23.6646,VALID,349,VALID,0.529688,
2011-01-25, 01:05:04,VALID,1003.43,VALID,0,INVALID,163.723,VALID,0,VALID,23.6434,VALID,349,VALID,0.483984,
2011-01-25, 01:06:04,VALID,1003.42,VALID,0,INVALID,163.731,VALID,0,VALID,23.6434,VALID,349,VALID,0.453516,
2011-01-25, 01:07:04,VALID,1003.43,VALID,0,INVALID,163.708,VALID,0,VALID,23.661,VALID,349,VALID,0.498437,
2011-01-25, 01:08:04,VALID,1003.45,VALID,0,INVALID,163.723,VALID,0,VALID,23.7017,VALID,349,VALID,0.575781,
2011-01-25, 01:09:04,VALID,1003.45,VALID,0,INVALID,163.739,VALID,0,VALID,23.723,VALID,349,VALID,0.511719,
2011-01-25, 01:10:04,VALID,1003.47,VALID,0,INVALID,163.701,VALID,0,VALID,23.7601,VALID,351,VALID,0.68125,
2011-01-25, 01:11:04,VALID,1003.44,VALID,0,INVALID,163.693,VALID,0,VALID,23.7601,VALID,351,VALID,0.535547,
2011-01-25, 01:12:04,VALID,1003.43,VALID,0,INVALID,163.701,VALID,0,VALID,23.7991,VALID,351,VALID,0.521484,
2011-01-25, 01:13:04,VALID,1003.43,VALID,0,INVALID,163.723,VALID,0,VALID,23.8167,VALID,351,VALID,0.390234,
2011-01-25, 01:14:04,VALID,1003.38,VALID,0,INVALID,163.708,VALID,0,VALID,23.8362,VALID,351,VALID,0.467578,
2011-01-25, 01:15:04,VALID,1003.35,VALID,0,INVALID,163.723,VALID,0,VALID,23.8964,VALID,351,VALID,0.354688,
2011-01-25, 01:16:04,VALID,1003.33,VALID,0,INVALID,163.693,VALID,0,VALID,23.9159,VALID,351,VALID,0.368359,
2011-01-25, 01:17:04,VALID,1003.3,VALID,0,INVALID,163.685,VALID,0,VALID,23.9353,VALID,351,VALID,0.360938,
2011-01-25, 01:18:04,VALID,1003.27,VALID,0,INVALID,163.723,VALID,0,VALID,23.914,VALID,351,VALID,0.346094,
2011-01-25, 01:19:04,VALID,1003.28,VALID,0,INVALID,163.647,VALID,0,VALID,23.9335,VALID,351,VALID,0.449609,
2011-01-25, 01:20:04,VALID,1003.23,VALID,0,INVALID,163.701,VALID,0,VALID,23.9742,VALID,351,VALID,0.642578,
2011-01-25, 01:21:04,VALID,1003.21,VALID,0,INVALID,163.693,VALID,0,VALID,23.9742,VALID,351,VALID,0.553906,
2011-01-25, 01:22:04,VALID,1003.2,VALID,0,INVALID,163.701,VALID,0,VALID,23.9548,VALID,348,VALID,0.605469,
2011-01-25, 01:23:04,VALID,1003.17,VALID,0,INVALID,163.67,VALID,0,VALID,23.9353,VALID,348,VALID,0.574219,
2011-01-25, 01:24:04,VALID,1003.18,VALID,0,INVALID,163.708,VALID,0,VALID,23.9353,VALID,348,VALID,0.433984,
2011-01-25, 01:25:04,VALID,1003.16,VALID,0,INVALID,163.708,VALID,0,VALID,23.9177,VALID,348,VALID,0.298047,
2011-01-25, 01:26:04,VALID,1003.11,VALID,0,INVALID,163.708,VALID,0,VALID,23.9584,VALID,348,VALID,0.328906,
2011-01-25, 01:27:04,VALID,1003.13,VALID,0,INVALID,163.723,VALID,0,VALID,23.9371,VALID,348,VALID,0.359375,
2011-01-25, 01:28:04,VALID,1003.1,VALID,0,INVALID,163.708,VALID,0,VALID,23.9566,VALID,348,VALID,0.496484,
2011-01-25, 01:29:04,VALID,1003.09,VALID,0,INVALID,163.701,VALID,0,VALID,23.9371,VALID,348,VALID,0.467969,
2011-01-25, 01:30:04,VALID,1003.13,VALID,0,INVALID,163.701,VALID,0,VALID,23.9371,VALID,348,VALID,0.582031,
2011-01-25, 01:31:04,VALID,1003.14,VALID,0,INVALID,163.716,VALID,0,VALID,23.9371,VALID,348,VALID,0.672656,
2011-01-25, 01:32:04,VALID,1003.13,VALID,0,INVALID,163.693,VALID,0,VALID,23.9159,VALID,354,VALID,0.652734,
2011-01-25, 01:33:04,VALID,1003.12,VALID,0,INVALID,163.685,VALID,0,VALID,23.9177,VALID,354,VALID,0.711719,
2011-01-25, 01:34:04,VALID,1003.14,VALID,0,INVALID,163.708,VALID,0,VALID,23.9177,VALID,354,VALID,0.502344,
2011-01-25, 01:35:04,VALID,1003.12,VALID,0,INVALID,163.693,VALID,0,VALID,23.8787,VALID,354,VALID,0.544141,
2011-01-25, 01:36:04,VALID,1003.15,VALID,0,INVALID,163.731,VALID,0,VALID,23.8805,VALID,354,VALID,0.555469,
2011-01-25, 01:37:04,VALID,1003.13,VALID,0,INVALID,163.723,VALID,0,VALID,23.8593,VALID,354,VALID,0.458984,
2011-01-25, 01:38:04,VALID,1003.13,VALID,0,INVALID,163.723,VALID,0,VALID,23.8593,VALID,354,VALID,0.408594,
2011-01-25, 01:39:04,VALID,1003.13,VALID,0,INVALID,163.708,VALID,0,VALID,23.9,VALID,354,VALID,0.546484,
2011-01-25, 01:40:04,VALID,1003.12,VALID,0,INVALID,163.678,VALID,0,VALID,23.9177,VALID,352,VALID,0.637109,
2011-01-25, 01:41:04,VALID,1003.12,VALID,0,INVALID,163.693,VALID,0,VALID,23.9353,VALID,336,VALID,0.475781,
2011-01-25, 01:42:04,VALID,1003.15,VALID,0,INVALID,163.708,VALID,0,VALID,23.9548,VALID,338,VALID,0.553906,
2011-01-25, 01:43:04,VALID,1003.14,VALID,0,INVALID,163.693,VALID,0,VALID,23.9937,VALID,341,VALID,0.347266,
2011-01-25, 01:44:04,VALID,1003.16,VALID,0,INVALID,163.685,VALID,0,VALID,24.0308,VALID,353,VALID,0.473437,
2011-01-25, 01:45:04,VALID,1003.16,VALID,0,INVALID,163.693,VALID,0,VALID,24.1087,VALID,352,VALID,0.626953,
2011-01-25, 01:46:04,VALID,1003.16,VALID,0,INVALID,163.678,VALID,0,VALID,24.1884,VALID,347,VALID,0.832422,
2011-01-25, 01:47:04,VALID,1003.14,VALID,0,INVALID,163.67,VALID,0,VALID,24.2662,VALID,352,VALID,0.591797,
2011-01-25, 01:48:04,VALID,1003.15,VALID,0,INVALID,163.662,VALID,0,VALID,24.3246,VALID,355,VALID,0.702344,
2011-01-25, 01:49:04,VALID,1003.13,VALID,0,INVALID,163.67,VALID,0,VALID,24.3422,VALID,350,VALID,0.478125,
2011-01-25, 01:50:04,VALID,1003.14,VALID,0,INVALID,163.662,VALID,0,VALID,24.3441,VALID,351,VALID,0.558984,
2011-01-25, 01:51:04,VALID,1003.12,VALID,0,INVALID,163.678,VALID,0,VALID,24.3441,VALID,350,VALID,0.612891,
2011-01-25, 01:52:04,VALID,1003.1,VALID,0,INVALID,163.678,VALID,0,VALID,24.3246,VALID,350,VALID,0.471875,
2011-01-25, 01:53:04,VALID,1003.09,VALID,0,INVALID,163.67,VALID,0,VALID,24.3441,VALID,350,VALID,0.449609,
2011-01-25, 01:54:04,VALID,1003.06,VALID,0,INVALID,163.678,VALID,0,VALID,24.3441,VALID,350,VALID,0.331641,
2011-01-25, 01:55:04,VALID,1003.04,VALID,0,INVALID,163.662,VALID,0,VALID,24.3459,VALID,350,VALID,0.277344,
2011-01-25, 01:56:04,VALID,1003.03,VALID,0,INVALID,163.693,VALID,0,VALID,24.3265,VALID,350,VALID,0.212109,
2011-01-25, 01:57:04,VALID,1002.98,VALID,0,INVALID,163.685,VALID,0,VALID,24.2875,VALID,350,VALID,0.105469,
2011-01-25, 01:58:04,VALID,1002.96,VALID,0,INVALID,163.662,VALID,0,VALID,24.2857,VALID,350,VALID,0.403516,
2011-01-25, 01:59:04,VALID,1002.95,VALID,0,INVALID,163.678,VALID,0,VALID,24.2875,VALID,350,VALID,0.213672,
2011-01-25, 02:00:04,VALID,1002.92,VALID,0,INVALID,163.693,VALID,0,VALID,24.2486,VALID,350,VALID,0.351953,
2011-01-25, 02:01:04,VALID,1002.92,VALID,0,INVALID,163.678,VALID,0,VALID,24.2291,VALID,350,VALID,0.280469,
2011-01-25, 02:02:04,VALID,1002.91,VALID,0,INVALID,163.708,VALID,0,VALID,24.2097,VALID,350,VALID,0.391406,
2011-01-25, 02:03:04,VALID,1002.9,VALID,0,INVALID,163.67,VALID,0,VALID,24.1707,VALID,350,VALID,0.621094,
2011-01-25, 02:04:04,VALID,1002.91,VALID,0,INVALID,163.685,VALID,0,VALID,24.1318,VALID,350,VALID,0.603516,
2011-01-25, 02:05:04,VALID,1002.93,VALID,0,INVALID,163.678,VALID,0,VALID,24.1142,VALID,353,VALID,0.768359,
2011-01-25, 02:06:04,VALID,1002.9,VALID,0,INVALID,163.693,VALID,0,VALID,24.0734,VALID,353,VALID,0.717578,
2011-01-25, 02:07:04,VALID,1002.91,VALID,0,INVALID,163.693,VALID,0,VALID,24.0345,VALID,353,VALID,0.504297,
2011-01-25, 02:08:04,VALID,1002.92,VALID,0,INVALID,163.716,VALID,0,VALID,24.0557,VALID,353,VALID,0.713672,
2011-01-25, 02:09:04,VALID,1002.88,VALID,0,INVALID,163.708,VALID,0,VALID,24.015,VALID,354,VALID,0.738672,
2011-01-25, 02:10:04,VALID,1002.9,VALID,0,INVALID,163.693,VALID,0.100563,VALID,23.9937,VALID,354,VALID,0.614844,
2011-01-25, 02:11:04,VALID,1002.92,VALID,0,INVALID,163.701,VALID,0.100563,VALID,23.9742,VALID,354,VALID,0.734375,
2011-01-25, 02:12:04,VALID,1002.91,VALID,0,INVALID,163.701,VALID,0,VALID,23.9353,VALID,354,VALID,0.562109,
2011-01-25, 02:13:04,VALID,1002.93,VALID,0,INVALID,163.678,VALID,0.100563,VALID,23.9159,VALID,344,VALID,0.585547,
2011-01-25, 02:14:04,VALID,1002.93,VALID,0,INVALID,163.716,VALID,0.100563,VALID,23.8964,VALID,345,VALID,0.49375,
2011-01-25, 02:15:04,VALID,1002.97,VALID,0,INVALID,163.731,VALID,0,VALID,23.8769,VALID,345,VALID,0.38125,
2011-01-25, 02:16:04,VALID,1002.96,VALID,0,INVALID,163.731,VALID,0.100563,VALID,23.8769,VALID,345,VALID,0.398047,
2011-01-25, 02:17:04,VALID,1002.97,VALID,0,INVALID,163.708,VALID,0,VALID,23.8769,VALID,345,VALID,0.411719,
2011-01-25, 02:18:04,VALID,1003.01,VALID,0,INVALID,163.723,VALID,0.100563,VALID,23.9159,VALID,345,VALID,0.390234,
2011-01-25, 02:19:04,VALID,1003.02,VALID,0,INVALID,163.693,VALID,0.100563,VALID,23.9159,VALID,345,VALID,0.331641,
2011-01-25, 02:20:04,VALID,1003,VALID,0,INVALID,163.701,VALID,0.100563,VALID,23.9159,VALID,345,VALID,0.380859,
2011-01-25, 02:21:04,VALID,1002.99,VALID,0,INVALID,163.708,VALID,0.100563,VALID,23.9353,VALID,345,VALID,0.420312,
2011-01-25, 02:22:04,VALID,1003.02,VALID,0,INVALID,163.693,VALID,0,VALID,23.9353,VALID,345,VALID,0.259766,
2011-01-25, 02:23:04,VALID,1003,VALID,0,INVALID,163.685,VALID,0.100563,VALID,23.9548,VALID,345,VALID,0.372656,
2011-01-25, 02:24:04,VALID,1002.98,VALID,0,INVALID,163.708,VALID,0,VALID,23.9548,VALID,359,VALID,0.6875,
2011-01-25, 02:25:04,VALID,1002.99,VALID,0,INVALID,163.716,VALID,0.100563,VALID,23.9335,VALID,359,VALID,0.307813,
2011-01-25, 02:26:04,VALID,1002.98,VALID,0,INVALID,163.708,VALID,0.100563,VALID,23.9335,VALID,359,VALID,0.246484,
2011-01-25, 02:27:04,VALID,1002.94,VALID,0,INVALID,163.678,VALID,0,VALID,23.9548,VALID,359,VALID,0.186328,
2011-01-25, 02:28:04,VALID,1002.94,VALID,0,INVALID,163.701,VALID,0,VALID,23.9548,VALID,359,VALID,0.186328,
2011-01-25, 02:29:04,VALID,1002.91,VALID,0,INVALID,163.701,VALID,0,VALID,23.9955,VALID,359,VALID,0.392578,
2011-01-25, 02:30:04,VALID,1002.89,VALID,0,INVALID,163.723,VALID,0.100563,VALID,24.0345,VALID,359,VALID,0.482422,
2011-01-25, 02:31:04,VALID,1002.88,VALID,0,INVALID,163.701,VALID,0.100563,VALID,24.0326,VALID,359,VALID,0.410547,
2011-01-25, 02:32:04,VALID,1002.87,VALID,0,INVALID,163.701,VALID,0,VALID,24.0132,VALID,359,VALID,0.568359,
2011-01-25, 02:33:04,VALID,1002.87,VALID,0,INVALID,163.693,VALID,0.100563,VALID,23.9937,VALID,359,VALID,0.696875,
2011-01-25, 02:34:04,VALID,1002.91,VALID,0,INVALID,163.693,VALID,0.100563,VALID,23.9937,VALID,359,VALID,0.714844,
2011-01-25, 02:35:04,VALID,1002.92,VALID,0,INVALID,163.701,VALID,0.100563,VALID,23.9919,VALID,9,VALID,0.700391,
2011-01-25, 02:36:04,VALID,1002.91,VALID,0,INVALID,163.701,VALID,0,VALID,23.9742,VALID,9,VALID,0.733984,
2011-01-25, 02:37:04,VALID,1002.94,VALID,0,INVALID,163.701,VALID,0.100563,VALID,23.9724,VALID,9,VALID,0.547266,
2011-01-25, 02:38:04,VALID,1002.94,VALID,0,INVALID,163.693,VALID,0,VALID,23.9937,VALID,9,VALID,0.565625,
2011-01-25, 02:39:04,VALID,1002.91,VALID,0,INVALID,163.685,VALID,0.100563,VALID,23.9937,VALID,9,VALID,0.563672,
2011-01-25, 02:40:04,VALID,1002.91,VALID,0,INVALID,163.685,VALID,0.100563,VALID,23.9937,VALID,9,VALID,0.697266,
2011-01-25, 02:41:04,VALID,1002.87,VALID,0,INVALID,163.701,VALID,0.100563,VALID,23.9919,VALID,9,VALID,0.527344,
2011-01-25, 02:42:04,VALID,1002.92,VALID,0,INVALID,163.708,VALID,0,VALID,24.0345,VALID,9,VALID,0.510156,
2011-01-25, 02:43:04,VALID,1002.89,VALID,0,INVALID,163.701,VALID,0,VALID,24.015,VALID,9,VALID,0.569922,
2011-01-25, 02:44:04,VALID,1002.86,VALID,0,INVALID,163.701,VALID,0.100563,VALID,23.9742,VALID,9,VALID,0.536328,
2011-01-25, 02:45:04,VALID,1002.85,VALID,0,INVALID,163.708,VALID,0,VALID,23.9937,VALID,9,VALID,0.4625,
2011-01-25, 02:46:04,VALID,1002.82,VALID,0,INVALID,163.701,VALID,0.100563,VALID,23.9742,VALID,9,VALID,0.469531,
2011-01-25, 02:47:04,VALID,1002.81,VALID,0,INVALID,163.678,VALID,0,VALID,23.9742,VALID,9,VALID,0.446484,
2011-01-25, 02:48:04,VALID,1002.77,VALID,0,INVALID,163.685,VALID,0.100563,VALID,23.9742,VALID,9,VALID,0.385547,
2011-01-25, 02:49:04,VALID,1002.79,VALID,0,INVALID,163.708,VALID,0,VALID,23.9742,VALID,9,VALID,0.552344,
2011-01-25, 02:50:04,VALID,1002.76,VALID,0,INVALID,163.716,VALID,0,VALID,23.9742,VALID,9,VALID,0.532422,
2011-01-25, 02:51:04,VALID,1002.73,VALID,0,INVALID,163.708,VALID,0.100563,VALID,23.9548,VALID,9,VALID,0.532812,
2011-01-25, 02:52:04,VALID,1002.77,VALID,0,INVALID,163.693,VALID,0.100563,VALID,23.9742,VALID,9,VALID,0.469531,
2011-01-25, 02:53:04,VALID,1002.73,VALID,0,INVALID,163.708,VALID,0.100563,VALID,23.9742,VALID,9,VALID,0.533203,
2011-01-25, 02:54:04,VALID,1002.75,VALID,0,INVALID,163.716,VALID,0,VALID,23.9742,VALID,9,VALID,0.6,
2011-01-25, 02:55:04,VALID,1002.74,VALID,0,INVALID,163.701,VALID,0,VALID,23.9955,VALID,9,VALID,0.513672,
2011-01-25, 02:56:04,VALID,1002.74,VALID,0,INVALID,163.693,VALID,0,VALID,23.9742,VALID,9,VALID,0.495703,
2011-01-25, 02:57:04,VALID,1002.74,VALID,0,INVALID,163.701,VALID,0,VALID,23.9937,VALID,9,VALID,0.565234,
2011-01-25, 02:58:04,VALID,1002.72,VALID,0,INVALID,163.708,VALID,0.100563,VALID,24.0132,VALID,9,VALID,0.580469,
2011-01-25, 02:59:04,VALID,1002.7,VALID,0,INVALID,163.701,VALID,0.100563,VALID,23.9937,VALID,9,VALID,0.462109,
2011-01-25, 03:00:04,VALID,1002.68,VALID,0,INVALID,163.701,VALID,0,VALID,24.0539,VALID,9,VALID,0.435156,
2011-01-25, 03:01:04,VALID,1002.64,VALID,0,INVALID,163.693,VALID,0.100563,VALID,24.0539,VALID,9,VALID,0.514063,
2011-01-25, 03:02:04,VALID,1002.66,VALID,0,INVALID,163.701,VALID,0,VALID,24.0521,VALID,9,VALID,0.513281,
2011-01-25, 03:03:04,VALID,1002.61,VALID,0,INVALID,163.685,VALID,0,VALID,24.0521,VALID,9,VALID,0.430469,
2011-01-25, 03:04:04,VALID,1002.58,VALID,0,INVALID,163.716,VALID,0,VALID,24.0929,VALID,9,VALID,0.514844,
2011-01-25, 03:05:04,VALID,1002.57,VALID,0,INVALID,163.701,VALID,0,VALID,24.091,VALID,9,VALID,0.424219,
2011-01-25, 03:06:04,VALID,1002.53,VALID,0,INVALID,163.685,VALID,0,VALID,24.091,VALID,9,VALID,0.339453,
2011-01-25, 03:07:04,VALID,1002.51,VALID,0,INVALID,163.685,VALID,0.100563,VALID,24.1105,VALID,9,VALID,0.197656,
2011-01-25, 03:08:04,VALID,1002.48,VALID,0,INVALID,163.693,VALID,0.100563,VALID,24.1105,VALID,9,VALID,0.288281,
2011-01-25, 03:09:04,VALID,1002.45,VALID,0,INVALID,163.693,VALID,0,VALID,24.13,VALID,9,VALID,0.273047,
2011-01-25, 03:10:04,VALID,1002.43,VALID,0,INVALID,163.685,VALID,0,VALID,24.13,VALID,9,VALID,0.00859375,
2011-01-25, 03:11:04,VALID,1002.41,VALID,0,INVALID,163.685,VALID,0,VALID,24.1105,VALID,9,VALID,0.00585938,
2011-01-25, 03:12:04,VALID,1002.39,VALID,0,INVALID,163.678,VALID,0,VALID,24.1318,VALID,9,VALID,0.00429688,
2011-01-25, 03:13:04,VALID,1002.38,VALID,0,INVALID,163.693,VALID,0,VALID,24.0892,VALID,9,VALID,0,
2011-01-25, 03:14:04,VALID,1002.35,VALID,0,INVALID,163.701,VALID,0,VALID,24.1318,VALID,9,VALID,0,
2011-01-25, 03:15:04,VALID,1002.36,VALID,0,INVALID,163.693,VALID,0,VALID,24.1105,VALID,9,VALID,0,
2011-01-25, 03:16:04,VALID,1002.31,VALID,0,INVALID,163.708,VALID,0.100563,VALID,24.13,VALID,9,VALID,0,
2011-01-25, 03:17:04,VALID,1002.29,VALID,0,INVALID,163.708,VALID,0,VALID,24.1105,VALID,9,VALID,0.213281,
2011-01-25, 03:18:04,VALID,1002.26,VALID,0,INVALID,163.678,VALID,0,VALID,24.13,VALID,9,VALID,0.271484,
2011-01-25, 03:19:04,VALID,1002.21,VALID,0,INVALID,163.678,VALID,0,VALID,24.1318,VALID,9,VALID,0.333984,
2011-01-25, 03:20:04,VALID,1002.21,VALID,0,INVALID,163.701,VALID,0,VALID,24.13,VALID,9,VALID,0.392188,
2011-01-25, 03:21:04,VALID,1002.2,VALID,0,INVALID,163.701,VALID,0.100563,VALID,24.1087,VALID,9,VALID,0.346875,
2011-01-25, 03:22:04,VALID,1002.22,VALID,0,INVALID,163.693,VALID,0,VALID,24.1105,VALID,9,VALID,0.351563,
2011-01-25, 03:23:04,VALID,1002.22,VALID,0,INVALID,163.685,VALID,0,VALID,24.1318,VALID,9,VALID,0.164844,
2011-01-25, 03:24:04,VALID,1002.22,VALID,0,INVALID,163.67,VALID,0,VALID,24.091,VALID,9,VALID,0.389844,
2011-01-25, 03:25:04,VALID,1002.23,VALID,0,INVALID,163.685,VALID,0,VALID,24.0929,VALID,9,VALID,0.392969,
2011-01-25, 03:26:04,VALID,1002.23,VALID,0,INVALID,163.716,VALID,0,VALID,24.0716,VALID,9,VALID,0.299609,
2011-01-25, 03:27:04,VALID,1002.27,VALID,0,INVALID,163.678,VALID,0,VALID,24.0929,VALID,9,VALID,0.359766,
2011-01-25, 03:28:04,VALID,1002.24,VALID,0,INVALID,163.708,VALID,0,VALID,24.0716,VALID,9,VALID,0.387109,
2011-01-25, 03:29:04,VALID,1002.26,VALID,0,INVALID,163.685,VALID,0,VALID,24.091,VALID,9,VALID,0.3625,
2011-01-25, 03:30:04,VALID,1002.26,VALID,0,INVALID,163.685,VALID,0,VALID,24.0521,VALID,9,VALID,0.373828,
2011-01-25, 03:31:04,VALID,1002.26,VALID,0,INVALID,163.685,VALID,0,VALID,24.0716,VALID,9,VALID,0.491016,
2011-01-25, 03:32:04,VALID,1002.28,VALID,0,INVALID,163.685,VALID,0,VALID,24.091,VALID,9,VALID,0.5,
2011-01-25, 03:33:04,VALID,1002.27,VALID,0,INVALID,163.701,VALID,0,VALID,24.0716,VALID,9,VALID,0.458984,
2011-01-25, 03:34:04,VALID,1002.29,VALID,0,INVALID,163.701,VALID,0,VALID,24.0716,VALID,9,VALID,0.430078,
2011-01-25, 03:35:04,VALID,1002.3,VALID,0,INVALID,163.708,VALID,0,VALID,24.0734,VALID,9,VALID,0.622656,
2011-01-25, 03:36:04,VALID,1002.33,VALID,0,INVALID,163.678,VALID,0.100563,VALID,24.0521,VALID,9,VALID,0.636719,
2011-01-25, 03:37:04,VALID,1002.35,VALID,0,INVALID,163.685,VALID,0,VALID,24.0326,VALID,9,VALID,0.553125,
2011-01-25, 03:38:04,VALID,1002.38,VALID,0,INVALID,163.685,VALID,0,VALID,24.0345,VALID,9,VALID,0.698438,
2011-01-25, 03:39:04,VALID,1002.39,VALID,0,INVALID,163.678,VALID,0,VALID,24.0326,VALID,9,VALID,0.777344,